Regional Weather Roundup
Issued by NWS

Home | Current Version | Previous Version | Graphics & Text | Print | Product List | Glossary On
Versions: 1 2 3 4 5 6 7 8 9 10 11 12 13 14 15 16 17 18 19 20 21 22 23 24 25 26 27 28 29 30 31 32 33 34 35 36 37 38 39 40 41 42 43 44 45 46 47 48 49 50
000
ASUS43 KMKX 022300
RWRWI

WISCONSIN REGIONAL WEATHER ROUNDUP
NATIONAL WEATHER SERVICE MILWAUKEE/SULLIVAN WI
600 PM CDT WED SEP 02 2015

NOTE: "FAIR" INDICATES FEW OR NO CLOUDS BELOW 12,000 FEET WITH NO
SIGNIFICANT WEATHER AND/OR OBSTRUCTIONS TO VISIBILITY.

WIZ001-002-006>008-014>016-023>028-030000-
NORTHWEST WISCONSIN

CITY           SKY/WX    TMP DP  RH WIND       PRES   REMARKS
SUPERIOR ARPT  SUNNY     67  62  84 NE6       29.94S
ASHLAND        MOSUNNY   74  69  85 NE6       29.94F
HAYWARD        CLOUDY    72  65  78 E3        29.95S
SIREN          CLOUDY    73  66  81 E3        29.93S
CUMBERLAND     CLOUDY    68  64  88 E7        29.93S
RICE LAKE      CLOUDY    70  66  87 NE5       29.94S
CHETEK         PTSUNNY  N/A N/A N/A MISG      29.91F
LADYSMITH      CLOUDY    71  67  88 N6        29.95S
EAU CLAIRE     NOT AVBL
MENOMONIE      MOSUNNY   74  68  81 NE3       29.90S
NEW RICHMOND   MOSUNNY   72  68  87 E5        29.91S
OSCEOLA        CLOUDY    70  70 100 E7        29.93F
$$

WIZ003>005-009-010-017-018-030000-
NORTH CENTRAL WISCONSIN

CITY           SKY/WX    TMP DP  RH WIND       PRES   REMARKS
MANITOWISH WTR CLOUDY    68  68 100 CALM      29.97S
ARBOR VITAE    CLOUDY    69  68  95 NE3       29.96S
WOODRUFF       CLOUDY    69  68  95 NE3       29.96S
RHINELANDER    CLOUDY    70  67  90 E8        29.95F
EAGLE RIVER    DRIZZLE   68  68 100 NE6       29.96F
LAND O LAKES   HVY RAIN  68  67  95 E5        29.98S
PHILLIPS       CLOUDY    68  67  96 N6        29.94S
TOMAHAWK       HVY RAIN  68  66  94 NE3       29.94F
MEDFORD        CLOUDY    67  67  99 NE3       29.92F
MERRILL        CLOUDY    70  70  99 CALM      29.93S
$$

WIZ029-030-035-036-043>047-030000-
CENTRAL WISCONSIN

CITY           SKY/WX    TMP DP  RH WIND       PRES   REMARKS
WAUSAU         CLOUDY    70  67  90 N10       29.90R
MOSINEE        PTSUNNY   73  72  94 N9        29.90S
MARSHFIELD     PTSUNNY   79  66  64 W5        29.90F HX  81
STEVENS POINT  PTSUNNY   81  65  58 SW10      29.89F HX  83
WAUPACA        MOSUNNY   87  67  52 S9        29.89F HX  90
WAUTOMA        NOT AVBL
WISC RAPIDS    PTSUNNY   84  65  52 SW12G21   29.88F HX  86
CAMP DOUGLAS   NOT AVBL
$$

WIZ011>013-019>022-031-037>040-048>050-030000-
NORTHEAST WISCONSIN

CITY           SKY/WX    TMP DP  RH WIND       PRES   REMARKS
ANTIGO         CLOUDY    70  67  90 NE5       29.94R
SHAWANO        MOSUNNY   77  68  72 NE5       29.91F
OCONTO         MOSUNNY   69  69 100 NE9       29.92F
STURGEON BAY   PTSUNNY   70  66  88 E7        29.95F
GREEN BAY      SUNNY     84  69  60 S5        29.91F HX  88
MANITOWOC      NOT AVBL
APPLETON       MOSUNNY   82  64  54 S10       29.90F HX  84
CLINTONVILLE   MOSUNNY   79  68  69 E6        29.89F HX  81
OSHKOSH        SUNNY     82  68  62 S12       29.91F HX  85
$$

WIZ032>034-041-042-053>061-030000-
SOUTHWEST WISCONSIN

CITY           SKY/WX    TMP DP  RH WIND       PRES   REMARKS
LA CROSSE      PTSUNNY   84  69  60 S10       29.88F HX  88
SPARTA         PTSUNNY   82  66  59 S5        29.91F HX  84
VIROQUA          N/A     80  69  69 S5        29.94F HX  82
BOSCOBEL       CLOUDY    84  68  58 CALM      29.91S HX  87
PRAIRIE DU CHI CLOUDY    82  66  58 SE5       29.90F HX  84
PLATTEVILLE    MOSUNNY   82  73  74 S9        29.95S HX  87
$$

WIZ056-057-062-063-064-067-068-030000-
SOUTH CENTRAL WISCONSIN

CITY           SKY/WX    TMP DP  RH WIND       PRES   REMARKS
REEDSBURG      MOSUNNY   83  67  59 SW12      29.93S HX  86
BARABOO/DELLS  SUNNY     84  62  47 SW8       29.93F HX  85
LONE ROCK      NOT AVBL
MINERAL POINT  SUNNY     81  70  69 SW7       29.95S HX  84
MADISON        MOSUNNY   83  68  60 S10       29.93F HX  86
MIDDLETON      SUNNY     85  66  52 SW12      29.94F HX  87
WATERTOWN      MOSUNNY   83  68  59 SW8       29.94F HX  86
MONROE         MOSUNNY   82  68  61 S10G17    29.96S HX  85
JANESVILLE     MOSUNNY   84  66  54 SW7       29.95S HX  86
$$

WIZ051-052-058>065-066-070>072-030000-
SOUTHEAST WISCONSIN

CITY           SKY/WX    TMP DP  RH WIND       PRES   REMARKS
MILWAUKEE      CLOUDY    86  68  54 W9        29.94S HX  89
WAUKESHA       SUNNY     82  68  61 SW3       29.97S HX  85
MILWAUKEE/TIMM NOT AVBL
RACINE         PTSUNNY   83  69  62 CALM      29.96S HX  86
BURLINGTON     CLOUDY    82  69  66 W3        29.95S HX  85
KENOSHA        CLOUDY    84  70  62 SW6       29.95S HX  88
FOND DU LAC    MOSUNNY   83  67  58 SW9       29.92F HX  85
SHEBOYGAN      PTSUNNY   83  71  67 SW6       29.93F HX  87
WEST BEND      PTSUNNY   82  66  57 SW7       29.95S HX  85
JUNEAU         MOSUNNY   82  68  61 SW9       29.96S HX  85
$$

LSZ147-162-030000-
LAKE SUPERIOR

STATION/POSITION TIME  TEMP    WIND        PRES    WAVE
                       AIR SEA DIR/SP/G            HT/PER
                 (UTC) (F)     (DEG/KT/KT) (MB)    (FT/S)
W MID LAKE BUOY  2150   58 56   30/  6/  8 1014.3S   0
DEVILS ISLAND    2200   62      70/  7/  7 1014.3F
PORT WING        2200   65      30/ 12/ 13 1013.9
SAXON HARBOR     2240   69        CALM     1013.5S
$$

LMZ867-665-643>646-030000-
LAKE MICHIGAN

STATION/POSITION TIME  TEMP    WIND        PRES    WAVE
                       AIR SEA DIR/SP/G            HT/PER
                 (UTC) (F)     (DEG/KT/KT) (MB)    (FT/S)
CHAMBERS ISLAND  2200   69      70/  9/ 14 1013.9S
S GREEN BAY BUOY 2230   69 66   70/ 14/ 16 1014.7F
N MID LAKE BUOY  2150   68 66  160/  4/  6 1013.5F   1/ 2
NORTHPORT PIER   2220   70     210/  6/ 13 1016.6R
SISTER BAY       2249   68     140/  8/ 10   N/A
ALGOMA LAKESHORE 2214           60/ 11/ 11   N/A
KEWAUNEE LAKESHO 2200   63      30/  8/ 12 1012.9R
SHEBOYGAN LAKESH 2200   74     180/ 11/ 12 1013.7R
PORT WASHINGTON  2200   69     180/  9/ 12 1014.6S
ATWATER BUOY     2200   60     150/  8/ 10 1015.2F
MILWAUKEE LAKESH 2210   69     140/  6/  6   N/A
S MID LAKE BUOY  2150   74 72  170/  8/  8 1013.7F   1
KENOSHA   LAKESH 2200   69     170/ 12/ 15 1013.5F
$$

TC  - TEMPERATURE IN CELSIUS
VSB - VISIBILITY IN STATUTE MILES
WCI - WIND CHILL INDEX
HX  - HEAT INDEX




USA.gov is the U.S. government's official web portal to all federal, state and local government web resources and services.